User: anonymous   Login
Location: Lawrence
(38.9720°N, 95.2350°W)
Time: 14:06:05
(UTC-06:00)
Language:

JAS-1B - Orbit

View from above orbital plane
View from above orbital plane
View from above satellite
View from above satellite

Ground track
Ground track

The orbit data is extracted from the following two-line orbital elements,

1 20480U 90013C   17018.49491627 -.00000031  00000-0  37786-5 0  9997
2 20480  99.0276 179.8504 0540412  10.2469 350.9143 12.83413680262518
Epoch (UTC): 18 January 2017 11:52:40
Eccentricity: 0.0540412
inclination: 99.0276°
perigee height: 911 km
apogee height: 1744 km
right ascension of ascending node: 179.8504°
argument of perigee: 10.2469°
revolutions per day: 12.83413680
mean anomaly at epoch: 350.9143°
orbit number at epoch: 26251

The dashed part of the orbit path shows where the satellite is in the earth's shadow,  

DLR